Forside
METAR-TAF:

METAR-TAF

Lufthavne :

Sheboygan County Memorial Airport

Sheboygan, Wisconsin, USA

Breddekreds: 43-46-35N, længdekreds: 087-50-59W, højde: 228 m

Aktuelle vejr

Denne rapport blev lavet for 41 minutter siden, kl. 17:53 UTC
Vind 9 kt fra vestsydvest
Temperatur 4°C
Fugtighed 65%
Tryk 1011 hPa
Sigt: 16.1 km
skyfri

METAR: KSBM 231753Z AUTO 24009KT 10SM CLR 04/M02 A2984 RMK AO2 SLP110 T00441022 10044 21017 58000

Tid: 12:34 (18:34 UTC)


TAF: fraværende

Vejrobservationer og prognoser fra mere end 4000 lufthavne (METAR og TAF).

De gule og røde prikker repræsenterer de meteorologiske stationer.

Flyt musen over at se navnet på stationen.

Så klik over at se vejr observationer og prognoser.

At skifte det kort: Klik på de grønne knapper med et sort kors for at zoome ind; på den grønne knap med en bindestreg for at zoome ud; eller på de grønne pile for tilstødende kort.


METAR-TAF: